Home > Weather > Chester > Past weeks

Flag for United Kingdom Past Weather in Chester, England, United Kingdom — Yesterday and Last 2 Weeks

Now
53 °F

Cool.


Feels Like: 53 °F
Forecast: 58 / 67 °F
Wind: 2 mph from South

Location: Hawarden

Current Time: Aug 30, 2016 at 6:22:42 AM

Latest Report: Aug 30, 2016 at 5:00 AM


Visibility: 19 mi

Pressure: 30.22 "Hg

Humidity: 93%

Dew Point: 51 °F

Location of ChesterLocation

Past Weather in Chester — Graph

°F

Chester Temperature Yesterday

Maximum temperature yesterday: 69 °F (at 3:00 PM)
Minimum temperature yesterday: 56 °F (at 7:00 AM)
Average temperature yesterday: 62 °F

High & Low Weather Summary for the Past Weeks

 TemperatureHumidityPressure
High80 °F (Aug 23, 4:00 PM)100% (Aug 27, 7:00 AM)30.30 "Hg (Aug 27, 7:00 AM)
Low46 °F (Aug 15, 6:00 AM)44% (Aug 15, 6:00 PM)29.41 "Hg (Aug 20, 7:00 AM)
Average63 °F78%29.98 "Hg
* Reported Aug 15 5:00 AM — Aug 30 5:00 AM, Chester, Weather by CustomWeather, © 2016

Note: Actual official high and low records may vary slightly from our data, if they occured in-between our weather recording intervals... More about our weather records

Advertising

Chester Weather History for the Previous 24 Hours

Scroll right to see more
 ConditionsComfort  
Time TempWeatherWind HumidityBarometerVisibility
5:00 AM
Tue, Aug 30
53 °FCool.2 mph93%30.22 "Hg19 mi
4:00 AM57 °FCool.6 mph89%30.23 "Hg25 mi
3:00 AM60 °FCool.6 mph85%30.23 "Hg31 mi
2:00 AM56 °FCool.3 mph84%30.24 "Hg28 mi
1:00 AM58 °FCool.2 mph77%30.24 "Hg28 mi
12:00 AM59 °FCool.8 mph77%30.24 "Hg31 mi
11:00 PM
Mon, Aug 29
60 °FCool.8 mph78%30.24 "Hg31 mi
10:00 PM57 °FCool.6 mph80%30.24 "Hg25 mi
9:00 PM60 °FCool.3 mph70%30.23 "Hg31 mi
8:00 PM65 °FMild.5 mph60%30.21 "Hg31 mi
7:00 PM68 °FMild.3 mph64%30.20 "Hg25 mi
6:00 PM69 °FMild.6 mph61%30.20 "Hg19 mi
5:00 PM69 °FMild.6 mph61%30.20 "Hg22 mi
4:00 PM69 °FMild.8 mph60%30.20 "Hg25 mi
3:00 PM69 °FMild.9 mph61%30.21 "Hg28 mi
2:00 PM69 °FMild.8 mph61%30.21 "Hg31 mi
1:00 PM67 °FMild.8 mph61%30.21 "Hg17 mi
12:00 PM65 °FMild.7 mph61%30.21 "Hg28 mi
11:00 AM64 °FMild.9 mph62%30.20 "Hg28 mi
10:00 AM62 °FCool.6 mph71%30.20 "Hg22 mi
9:00 AM59 °FCool.3 mph76%30.18 "Hg22 mi
8:00 AM59 °FCool.8 mph80%30.17 "Hg14 mi
7:00 AM56 °FCool.5 mph89%30.16 "Hg14 mi
6:00 AM56 °FCool.5 mph88%30.14 "Hg19 mi
Weather by CustomWeather, © 2016

See weather overviewHow to use our weather pages